Content
SEND FEEDBACK

Daily
Averages
Monthly
Summary
United States of America

NEENACH, CALIFORNIA


Home > North America > United States > California
Elevation: 2890 feet     Latitude: 34 48N     Longitude: 118 35W

WEATHER
 
SELECT A DAY
Number of Records: 234,357;   Date Range: 1/19/95 - 7/29/14
 
SHARE

PRINT THIS DATA

[ ← Previous Day ]
WEATHER ALMANAC - FEBRUARY 13, 2013
[ Next Day → ]
[ °C ]   °F
Weather ElementAverageHighLow
Temperature49.4 °F57.9 °F (1:48 pm)41 °F (2:48 am)
Dewpoint18.6 °F25 °F (6:48 pm)14 °F (3:48 pm)
Humidity30.7 %43 % (2:48 am)18 % (3:48 pm)
Barometer30.18 in30.25 in (7:48 am)30.13 in (3:48 pm)
Wind Speed8.3 mph13.8 mph (12:48 pm)
Wind Gust21.9 mph (12:48 pm)
Weather ElementAverage
Visibility10 mi
Wind DirectionSSE (141.7 °)

Weather ElementTotal
Precipitation---
Heating Degree Days15.6 (Base 65)
Averaged from 23 records on February 13, 2013
WEATHER CONDITIONS BREAKOUT
WIND DIRECTION BREAKOUT
WEATHER BY HOUR - FEBRUARY 13, 2013
[ °C ]   °F
Local TimeTemperatureDewpointHumidityBarometerVisibilityWind DirectionWind SpeedGust SpeedPrecipitationEventsConditions
1:48 AM43.0 °F19.0 °F38 %30.21 in10.0 miNorth (350°)6.9 mphClear
2:48 AM41.0 °F19.9 °F43 %30.20 in10.0 miNorth (350°)11.5 mphClear
3:48 AM44.1 °F19.0 °F37 %30.19 in10.0 miNorth (350°)10.4 mphClear
4:48 AM45.0 °F16.0 °F31 %30.20 in10.0 miENE (60°)3.5 mphClear
5:48 AM45.0 °F15.1 °F30 %30.21 in10.0 miNNE (30°)3.5 mphClear
6:48 AM45.0 °F16.0 °F31 %30.23 in10.0 miNorth (360°)4.6 mphClear
7:48 AM45.0 °F19.0 °F36 %30.25 in10.0 miNorth (10°)3.5 mphClear
8:48 AM48.9 °F19.0 °F31 %30.25 in10.0 miNE (50°)9.2 mphClear
9:48 AM51.1 °F19.9 °F29 %30.25 in10.0 miENE (70°)12.7 mph19.6 mphClear
10:48 AM53.1 °F21.0 °F29 %30.24 in10.0 miNE (50°)10.4 mph16.1 mphClear
11:48 AM55.9 °F16.0 °F21 %30.21 in10.0 miENE (70°)12.7 mph20.7 mphClear
12:48 PM57.0 °F16.0 °F20 %30.19 in10.0 miEast (80°)13.8 mph21.9 mphClear
1:48 PM57.9 °F15.1 °F19 %30.16 in10.0 miEast (80°)11.5 mphClear
2:48 PM57.9 °F15.1 °F19 %30.14 in10.0 miENE (60°)8.1 mph18.4 mphClear
3:48 PM57.0 °F14.0 °F18 %30.13 in10.0 miENE (70°)8.1 mphClear
4:48 PM55.9 °F18.0 °F23 %30.13 in10.0 miNNE (20°)4.6 mphClear
5:48 PM50.0 °F19.9 °F31 %30.14 in10.0 miNE (40°)4.6 mphClear
6:48 PM46.9 °F25.0 °F42 %30.15 in10.0 miNorth (350°)9.2 mphClear
7:48 PM46.9 °F24.1 °F41 %30.16 in10.0 miNorth (350°)11.5 mphClear
8:48 PM46.9 °F21.9 °F37 %30.16 in10.0 miNNW (340°)13.8 mphClear
9:48 PM46.0 °F21.9 °F39 %30.15 in10.0 miNNE (30°)6.9 mphClear
10:48 PM48.0 °F21.0 °F34 %30.15 in10.0 miNNE (20°)3.5 mphClear
11:48 PM48.0 °F16.0 °F28 %30.15 in10.0 miENE (70°)6.9 mphClear
Hourly data recorded from KSDB, located miles away from Neenach, California







STORIES FROM OUR PARTNERS